Overview Statistics Trail Chart Weather Telemetry Raw packets
 

This is the latest recevied weather packets stored in our database for station/object K3RUP-1. If no packets are shown the sender has not sent any weather packets the latest 10 day(s).

<< 98 99 100 101 102 103 104 >>
Time Temp. Humidity Pressure Rain* Wind** Luminosity Snow
1787958729 26.67° C 81% 1016 hPa 0 mm - 16 W/m² -
1787958424 26.67° C 80% 1016 hPa 0 mm - 18 W/m² -
1787958121 27.22° C 79% 1015.8 hPa 0 mm - 20 W/m² -
1787957819 27.22° C 78% 1015.8 hPa 0 mm - 23 W/m² -
1787957514 27.22° C 76% 1016.1 hPa 0 mm - 29 W/m² -
1787957208 27.22° C 76% 1015.9 hPa 0 mm - 31 W/m² -
1787956904 27.22° C 75% 1016 hPa 0 mm - 34 W/m² -
1787956603 27.78° C 73% 1015.9 hPa 0 mm - 43 W/m² -
1787956298 27.78° C 73% 1015.9 hPa 0 mm - 57 W/m² -
1787955993 27.78° C 74% 1016 hPa 0 mm - 70 W/m² -
1787955689 27.78° C 74% 1015.9 hPa 0 mm - 78 W/m² -
1787955385 27.78° C 72% 1015.9 hPa 0 mm - 77 W/m² -
1787955083 28.33° C 73% 1015.8 hPa 0 mm - 83 W/m² -
1787954779 27.78° C 73% 1015.8 hPa 0 mm - 122 W/m² -
1787954475 27.78° C 78% 1015.9 hPa 0 mm - 88 W/m² -
1787954174 27.78° C 77% 1016.1 hPa 0 mm - 75 W/m² -
1787953868 27.78° C 77% 1016.2 hPa 0 mm - 89 W/m² -
1787953562 27.22° C 77% 1016 hPa 0 mm - 95 W/m² -
1787953256 27.22° C 78% 1015.8 hPa 0 mm - 91 W/m² -
1787952954 27.22° C 79% 1016 hPa 0 mm - 66 W/m² -
1787952648 27.22° C 78% 1015.8 hPa 0 mm - 67 W/m² -
1787952348 27.22° C 79% 1015.8 hPa 0 mm - 69 W/m² -
1787952039 27.22° C 79% 1015.8 hPa 0 mm - 59 W/m² -
1787951738 27.22° C 78% 1015.9 hPa 0 mm - 65 W/m² -
1787951434 27.22° C 78% 1016 hPa 0 mm - 70 W/m² -

* Rain latest hour (hover to see other rain measurements)
** Current wind speed in m/s (hover to see current wind gust speed)